Wind_Speed
31 28 26 28 32 33 35 40 41 44 43 36 35 34 31 27 21 14 12 11 11 12 13 13 13 12 12 13 14 14 14 15 15 15 14 13 14 15 16 17 18 21 21
26 28 26 28 31 35 35 40 43 40 35 36 34 32 30 26 19 16 12 12 10 11 13 14 14 14 15 16 15 14 15 15 15 14 15 15 16 14 14 16 17 19 20
27 26 29 33 34 36 35 34 39 26 30 35 34 31 27 21 16 16 14 13 11 13 14 15 16 15 16 17 16 17 17 17 17 16 15 14 15 16 16 16 16 18 20
32 30 33 36 37 37 33 32 28 37 30 32 34 28 25 18 16 17 15 13 13 14 15 16 17 17 17 17 18 16 16 17 18 18 18 16 15 16 17 18 20 21 20
32 31 34 39 41 36 35 34 30 31 34 34 33 26 24 16 15 16 14 16 16 15 16 17 17 17 17 19 20 18 15 17 20 21 19 18 18 17 18 19 20 21 23
32 37 40 41 40 34 37 34 32 37 37 34 31 28 21 15 15 16 16 17 17 17 17 18 20 19 20 20 19 19 17 16 18 22 22 20 18 18 21 23 24 25 24
35 36 41 34 35 34 45 33 39 43 39 33 30 25 8 11 14 17 19 17 18 18 19 20 22 25 26 25 23 21 19 19 19 22 23 26 27 28 28 29 30 34 32
32 34 35 24 40 34 48 40 41 49 38 29 15 6 9 13 17 19 16 18 18 19 18 22 24 25 25 22 20 16 14 17 19 23 26 27 28 27 29 31 30 30 33
30 29 32 42 43 41 32 47 48 43 30 10 10 14 12 14 15 19 18 16 15 19 23 24 25 24 23 24 21 21 24 24 25 26 28 30 30 35 37 36 35 33 34
30 34 34 27 24 31 34 42 45 34 17 13 10 11 13 13 18 16 12 17 22 22 25 25 24 21 22 21 23 29 31 34 33 34 38 36 36 37 39 40 38 36 35
30 31 26 29 34 42 40 36 35 24 18 14 14 14 12 13 10 10 18 22 22 26 26 23 20 19 19 20 27 31 33 37 41 44 46 45 42 42 43 43 42 36 36
28 17 28 22 28 25 26 36 25 24 21 17 16 12 11 12 14 19 20 25 22 19 15 18 20 20 26 26 29 31 34 34 35 37 40 41 41 41 40 39 36 35 33
21 24 27 25 23 21 19 22 23 19 13 12 11 10 11 16 18 19 18 14 14 19 21 20 27 30 30 29 29 29 32 33 35 37 40 41 42 42 40 38 35 32 33
24 23 22 21 24 15 22 18 16 14 13 10 11 13 15 13 13 15 19 20 21 22 25 26 27 29 28 26 28 29 33 35 37 39 40 40 40 41 40 39 38 35 32
26 28 24 19 19 19 17 15 11 9 7 7 7 11 13 16 17 20 21 22 23 24 23 22 24 28 30 31 34 37 39 40 40 40 39 40 41 41 41 41 40 39 37
18 15 19 16 17 15 14 12 11 10 9 8 8 12 11 14 20 24 22 20 20 19 23 26 27 31 33 35 36 38 39 40 41 42 42 41 40 41 42 43 43 43 44
12 12 13 16 15 12 14 10 6 5 4 9 12 14 16 20 20 18 17 19 20 23 27 29 30 33 35 37 38 40 42 44 44 45 45 44 43 44 45 44 44 46 47
13 7 8 11 10 9 9 6 7 3 9 12 13 15 17 13 14 15 18 21 24 27 29 32 34 36 38 40 42 44 46 47 48 48 48 47 47 48 46 45 45 43 42
13 12 12 10 7 7 4 4 5 9 13 14 15 14 12 15 16 19 21 25 28 30 34 37 40 41 43 44 46 46 48 48 49 49 49 49 50 50 48 46 45 46 47
11 8 8 3 2 1 4 7 10 13 14 14 11 13 17 18 20 23 26 29 33 36 39 42 44 45 46 47 48 48 49 49 50 50 51 52 53 51 48 48 50 51 53
5 5 2 1 4 6 8 10 12 12 11 11 14 18 20 23 26 29 32 35 38 40 43 45 47 48 48 49 51 51 51 49 49 52 53 55 54 51 51 53 55 58 61
3 3 3 5 6 9 8 10 10 10 11 15 17 21 25 28 32 34 37 40 42 44 47 49 50 51 52 55 54 52 51 52 56 58 59 57 53 53 56 59 62 65 67
5 6 6 7 9 9 8 8 9 12 15 19 22 27 30 34 37 39 42 44 46 48 50 52 54 54 54 55 54 56 58 59 62 63 59 57 55 58 62 65 68 70 72
7 11 12 11 9 8 8 11 14 17 20 25 28 32 35 38 41 44 47 48 50 50 49 51 54 56 59 58 59 59 61 65 66 62 62 58 60 65 69 72 76 78 80
8 11 10 10 9 10 13 15 17 23 26 30 33 36 38 43 45 47 48 49 51 49 46 53 54 58 63 61 61 61 64 66 67 68 63 61 64 71 77 79 81 82 84
10 9 8 9 10 13 16 19 23 27 31 35 38 40 44 46 48 48 45 47 51 47 50 57 62 64 65 63 63 67 67 66 69 71 69 70 75 76 80 83 85 85 86
Wind_Direction
251 259 265 271 280 281 280 289 280 280 277 285 290 301 301 310 305 288 252 254 265 275 281 283 287 286 294 296 295 300 306 311 311 310 315 312 314 307 294 292 288 285 282
261 260 257 267 281 285 279 287 302 280 273 283 290 293 296 308 294 280 252 262 269 280 285 288 292 291 292 295 299 308 310 307 305 304 307 312 309 305 300 300 297 286 280
259 266 264 264 275 285 287 288 299 266 266 275 286 281 287 296 278 259 252 260 278 283 292 295 296 296 294 296 303 303 306 302 299 294 298 304 307 309 307 307 305 301 297
265 265 267 269 272 283 282 283 285 263 273 272 277 266 279 276 252 243 249 267 275 286 295 299 305 303 300 301 301 300 301 293 290 293 297 306 308 312 314 314 309 306 303
260 268 279 278 275 275 277 274 272 264 257 270 257 256 270 256 238 241 248 264 274 282 289 297 300 300 301 298 297 297 300 293 284 286 286 298 302 306 307 307 304 302 301
264 265 280 281 280 277 269 274 266 246 259 254 251 249 248 231 229 234 248 260 271 282 289 292 291 294 299 298 298 301 295 286 281 280 281 292 301 306 306 308 304 303 301
273 276 280 285 261 279 249 260 256 257 241 241 243 245 230 232 221 230 244 260 275 284 285 286 296 307 307 303 304 302 294 287 284 279 280 282 288 287 293 292 294 297 298
273 275 280 276 238 268 240 240 252 238 234 234 229 205 200 204 218 235 251 265 276 280 293 302 309 309 304 310 312 314 303 303 293 287 286 287 286 289 289 291 292 294 293
265 285 276 253 238 239 221 237 234 230 226 172 175 190 196 207 225 239 254 272 287 303 302 303 302 301 301 301 303 306 304 298 295 291 288 286 286 290 291 290 291 291 289
258 257 273 227 257 234 230 232 227 218 180 156 146 183 201 216 226 252 280 295 290 293 294 302 307 301 292 292 297 302 300 299 298 297 294 293 286 287 289 289 292 292 288
253 246 235 270 280 237 224 225 226 204 140 147 176 197 202 224 255 274 265 277 286 295 292 287 284 297 307 297 293 295 296 296 297 299 302 299 294 292 290 290 289 291 290
231 268 249 254 248 225 224 220 193 155 163 171 182 203 220 234 246 261 271 272 275 283 292 292 282 288 297 295 299 303 306 305 303 303 302 302 300 295 293 294 297 294 290
238 264 244 236 201 210 175 135 134 131 153 176 177 198 232 241 247 255 269 292 294 300 286 283 294 294 297 295 304 309 307 306 307 310 308 305 302 300 299 299 300 295 292
222 245 222 187 198 149 124 122 136 146 163 188 212 229 238 247 276 269 279 290 293 293 291 296 296 293 298 300 305 303 303 307 309 308 307 305 300 296 294 292 291 292 289
222 217 167 133 124 123 129 136 167 186 196 214 238 253 255 254 275 289 289 294 297 292 294 301 305 305 306 305 303 305 304 304 306 308 308 307 305 300 293 287 286 287 285
103 111 122 135 134 142 139 150 168 185 201 222 250 263 273 280 291 287 296 294 294 304 306 305 305 302 302 301 301 300 300 300 301 302 303 303 304 303 296 290 283 280 277
119 142 147 146 145 158 156 175 193 208 228 254 269 280 287 292 287 293 296 298 302 301 302 302 303 302 299 299 298 298 299 301 301 301 301 301 303 302 299 290 284 281 279
138 164 146 164 159 170 196 188 210 233 260 279 295 292 292 289 298 298 294 295 298 302 302 302 302 300 300 301 300 300 301 302 303 303 302 301 302 301 296 289 284 281 279
176 162 166 175 163 182 213 234 273 275 276 281 291 294 294 298 300 296 300 301 301 301 301 300 299 301 301 300 300 301 302 302 302 303 302 300 301 298 293 287 281 279 279
167 154 171 174 111 158 273 286 276 271 275 289 290 292 293 298 299 301 300 300 299 299 300 299 302 303 303 303 302 302 303 304 305 304 303 301 300 295 289 287 285 284 283
164 164 159 345 297 284 287 289 276 282 284 286 288 294 296 298 296 296 297 299 300 301 300 301 303 304 304 302 302 303 304 306 307 307 304 302 299 294 291 290 290 290 290
195 192 241 280 260 282 281 282 277 266 274 283 291 289 291 293 295 299 301 301 301 303 304 305 306 307 305 306 305 302 301 303 304 306 304 300 295 294 294 295 295 294 294
256 274 278 260 257 259 270 268 276 280 288 289 290 292 295 299 303 304 303 303 303 305 307 308 308 308 308 308 304 301 301 302 303 304 302 298 293 294 295 296 296 296 295
239 250 262 276 274 278 275 277 288 292 292 292 295 298 301 303 302 302 303 306 308 308 309 310 309 308 309 307 305 305 302 300 301 301 301 297 295 296 297 297 297 297 297
251 260 262 261 262 256 267 276 288 292 293 296 297 300 303 301 302 305 307 309 308 303 303 308 304 305 307 303 303 304 301 297 296 298 297 295 295 299 300 300 299 298 298
236 244 248 247 260 267 278 289 291 294 296 297 299 302 301 303 308 307 305 312 302 292 290 307 309 303 302 302 302 302 300 298 300 300 298 296 297 297 301 301 300 298 297
Height
5836 5838 5839 5839 5837 5836 5836 5836 5837 5835 5836 5835 5835 5835 5835 5835 5835 5834 5834 5834 5835 5834 5834 5834 5834 5835 5833 5832 5830 5829 5828 5827 5826 5824 5823 5823 5821 5819 5817 5816 5816 5816 5816
5832 5833 5834 5835 5834 5834 5834 5833 5830 5828 5829 5830 5831 5830 5830 5831 5832 5832 5832 5834 5834 5833 5832 5832 5833 5833 5832 5830 5829 5827 5825 5824 5823 5822 5821 5820 5819 5818 5816 5815 5813 5814 5813
5827 5829 5830 5829 5829 5829 5830 5829 5827 5826 5826 5827 5829 5828 5827 5830 5831 5832 5833 5834 5832 5832 5831 5831 5831 5831 5830 5829 5827 5826 5824 5823 5821 5821 5820 5819 5817 5815 5815 5814 5813 5812 5811
5823 5825 5824 5824 5823 5823 5825 5825 5824 5823 5823 5824 5826 5825 5826 5829 5829 5831 5833 5833 5832 5831 5829 5830 5830 5830 5829 5827 5826 5824 5823 5822 5820 5818 5817 5816 5815 5814 5813 5811 5810 5809 5808
5816 5818 5818 5817 5818 5818 5818 5818 5819 5819 5819 5820 5822 5822 5824 5826 5828 5832 5832 5833 5831 5829 5828 5828 5828 5827 5826 5824 5823 5822 5821 5820 5818 5816 5815 5813 5812 5811 5811 5809 5808 5807 5804
5810 5812 5811 5810 5808 5811 5809 5810 5813 5813 5814 5816 5817 5818 5819 5823 5825 5830 5831 5831 5830 5829 5827 5824 5825 5825 5823 5821 5819 5818 5818 5816 5814 5813 5812 5810 5809 5808 5807 5805 5804 5802 5800
5804 5805 5804 5803 5800 5801 5802 5802 5806 5806 5808 5810 5812 5814 5816 5821 5826 5829 5829 5829 5828 5827 5824 5822 5820 5821 5819 5818 5816 5814 5813 5813 5811 5811 5808 5807 5805 5804 5802 5800 5799 5797 5795
5799 5800 5800 5798 5798 5795 5795 5793 5796 5801 5804 5805 5810 5811 5816 5820 5823 5825 5825 5826 5825 5823 5821 5820 5819 5816 5815 5812 5811 5810 5808 5808 5807 5806 5804 5802 5799 5798 5795 5794 5792 5790 5788
5795 5795 5793 5797 5795 5790 5789 5790 5793 5797 5799 5803 5808 5812 5815 5818 5820 5822 5823 5823 5822 5820 5818 5816 5815 5814 5811 5809 5807 5804 5805 5804 5802 5800 5799 5797 5795 5792 5789 5787 5785 5782 5781
5792 5790 5786 5788 5792 5795 5789 5788 5789 5791 5798 5803 5808 5812 5814 5817 5820 5820 5821 5820 5819 5816 5815 5813 5811 5809 5807 5805 5802 5801 5799 5798 5796 5793 5791 5790 5787 5785 5782 5780 5777 5775 5773
5785 5786 5789 5788 5786 5785 5783 5787 5791 5794 5798 5803 5808 5810 5813 5815 5816 5817 5818 5818 5816 5814 5811 5808 5806 5805 5802 5800 5799 5796 5793 5791 5788 5786 5783 5781 5778 5776 5773 5771 5769 5767 5766
5778 5782 5783 5782 5786 5783 5783 5785 5788 5793 5798 5803 5807 5808 5810 5813 5815 5816 5815 5814 5811 5808 5805 5803 5801 5799 5798 5796 5793 5791 5788 5787 5783 5780 5777 5774 5771 5769 5766 5763 5761 5759 5757
5780 5778 5778 5779 5782 5781 5780 5785 5790 5793 5798 5803 5805 5808 5810 5811 5811 5811 5810 5808 5806 5806 5802 5800 5797 5796 5793 5791 5788 5785 5783 5780 5778 5774 5770 5767 5763 5760 5758 5755 5754 5752 5751
5777 5780 5779 5776 5778 5780 5781 5788 5793 5796 5799 5802 5803 5806 5807 5807 5807 5806 5805 5804 5802 5800 5796 5794 5794 5791 5789 5786 5784 5781 5777 5774 5771 5768 5764 5761 5757 5753 5750 5748 5747 5746 5744
5773 5775 5776 5778 5779 5783 5786 5788 5795 5798 5799 5800 5800 5803 5805 5804 5804 5802 5802 5799 5797 5794 5792 5791 5789 5786 5783 5780 5778 5774 5770 5767 5764 5761 5757 5752 5749 5745 5743 5741 5739 5737 5737
5771 5775 5777 5781 5783 5787 5789 5792 5795 5796 5797 5800 5801 5802 5799 5800 5799 5799 5796 5796 5793 5789 5788 5786 5783 5780 5777 5775 5771 5768 5764 5761 5758 5754 5749 5744 5740 5737 5734 5731 5729 5727 5726
5779 5781 5785 5785 5785 5790 5787 5793 5794 5795 5795 5798 5799 5798 5796 5797 5797 5794 5792 5792 5787 5786 5784 5781 5777 5774 5772 5768 5765 5760 5757 5753 5748 5743 5739 5734 5730 5726 5723 5720 5718 5716 5715
5783 5785 5785 5788 5785 5789 5791 5789 5793 5790 5795 5794 5793 5794 5793 5793 5792 5790 5789 5787 5784 5781 5778 5775 5771 5768 5764 5760 5756 5751 5746 5741 5736 5732 5728 5724 5719 5715 5712 5710 5707 5705 5704
5782 5783 5784 5786 5786 5787 5788 5789 5787 5788 5791 5790 5790 5789 5790 5789 5787 5787 5783 5782 5779 5775 5772 5768 5764 5760 5756 5751 5746 5741 5735 5729 5725 5720 5716 5712 5708 5704 5700 5698 5696 5694 5692
5780 5781 5783 5783 5783 5785 5787 5785 5786 5787 5787 5786 5786 5787 5786 5783 5783 5781 5779 5776 5772 5769 5764 5760 5755 5751 5746 5741 5736 5730 5724 5718 5713 5709 5705 5701 5697 5692 5688 5685 5683 5680 5677
5780 5781 5781 5781 5783 5783 5783 5782 5783 5783 5783 5783 5783 5781 5780 5779 5778 5777 5773 5769 5765 5760 5756 5750 5745 5740 5734 5729 5723 5717 5711 5707 5702 5697 5692 5688 5682 5678 5674 5671 5668 5664 5661
5776 5777 5778 5779 5780 5779 5778 5779 5779 5781 5780 5779 5779 5779 5778 5775 5773 5770 5765 5760 5756 5750 5745 5739 5734 5728 5723 5717 5711 5706 5702 5698 5692 5687 5681 5675 5670 5665 5660 5655 5650 5646 5642
5775 5774 5774 5776 5776 5775 5775 5776 5776 5776 5775 5775 5775 5773 5770 5767 5763 5759 5755 5751 5746 5740 5733 5727 5721 5716 5710 5704 5698 5692 5687 5684 5679 5674 5668 5662 5656 5650 5645 5639 5633 5627 5622
5772 5771 5770 5771 5771 5771 5771 5772 5772 5772 5772 5771 5769 5765 5761 5758 5754 5750 5745 5740 5733 5727 5721 5716 5710 5704 5698 5692 5687 5681 5675 5669 5664 5662 5655 5649 5643 5635 5627 5620 5612 5605 5599
5769 5768 5768 5768 5767 5768 5769 5770 5769 5769 5767 5764 5761 5757 5753 5750 5745 5740 5733 5727 5721 5716 5711 5707 5701 5695 5689 5682 5675 5669 5663 5656 5649 5644 5641 5633 5626 5615 5605 5598 5589 5582 5574
5764 5765 5765 5766 5766 5765 5765 5765 5765 5763 5760 5756 5753 5748 5745 5741 5735 5729 5722 5716 5710 5703 5699 5695 5691 5684 5677 5669 5662 5656 5648 5640 5632 5624 5619 5614 5607 5600 5588 5575 5566 5556 5548